www.pogodaiklimat.ru

Погода и климат >> Архив погоды >> Египет >> Kosseir


ПОГОДА в Kosseir

  • Прогноз погоды в Kosseir
  • Монитор погоды в Kosseir
  • Климат города

АРХИВ ПОГОДЫ в Kosseir

Время (UTC), дата Ветер
(напр.,м/с)
 
Видим.   Явления Облачность Т
(С)
Тd
(С)
f
(%)
Тe
(С)
Тes
(С)
Комфортность P
(гПа)
Po
(гПа)
Тmin
(С)
Tmax
(С)
R
(мм)
R24
(мм)
S
(см)
00 12.12 СЗ 3 10 км ясно +15.0 +3.4 46 +14 +14 1018.9 1019.0
03 12.12 СЗ 1 10 км ясно +14.9 +7.0 59 +16 +16 1017.9 1018.0
06 12.12 штиль 0 10 км 1/0
[Ci fib]
+17.3 +3.6 40 +17 +20 1019.1 1019.0 +14.3
09 12.12 штиль 0 10 км 4/0
[Ci fib]
+24.9 +7.1 32 +25 +36 комфорт 1018.7 1019.0
12 12.12 С 3 10 км 4/0
[Ci fib]
+25.0 +15.0 54 +28 +32 жарко 1017.2 1017.0
15 12.12 штиль 0 10 км 5/0
[Ci]
+23.5 +13.8 54 +26 +26 жарко 1017.0 1017.0
18 12.12 штиль 0 10 км ясно +19.3 +16.5 84 +21 +21 комфорт 1017.6 1018.0 +25.5
00 13.12 СЗ 2 10 км ясно +16.3 +7.5 56 +17 +17 1017.1 1017.0
03 13.12 СЗ 1 10 км ясно +15.0 +6.3 56 +16 +16 1016.5 1017.0
06 13.12 СЗ 1 10 км 4/0
[Ci fib]
+18.8 +9.3 54 +21 +23 комфорт 1017.9 1018.0 +14.9
09 13.12 С 6 10 км 1/0
[Ci fib]
+23.7 +12.7 50 +26 +29 жарко 1017.3 1017.0
12 13.12 С 6 10 км 1/0
[Ci fib]
+24.4 +13.4 50 +27 +29 жарко 1015.5 1016.0
15 13.12 С 4 10 км 4/0
[Ci fib]
+22.9 +16.7 68 +28 +28 душно 1015.1 1015.0
18 13.12 штиль 0 10 км ясно +21.2 +14.4 65 +24 +24 комфорт 1016.4 1016.0 +24.8
21 13.12 СЗ 5 10 км ясно +20.3 +11.8 58 +22 +22 комфорт 1016.3 1016.0
00 14.12 С 8 10 км ясно +19.6 +12.1 62 +20 +20 1015.4 1015.0
03 14.12 С 6 10 км ясно +18.4 +10.7 61 +18 +18 1015.5 1016.0
06 14.12 С 6 10 км ясно +18.8 +11.5 63 +19 +20 1017.5 1018.0 +17.5
09 14.12 С 7 10 км ясно +21.4 +14.3 64 +24 +27 комфорт 1017.4 1017.0
12 14.12 С 7 10 км ясно +22.3 +13.2 56 +25 +27 комфорт 1015.4 1015.0
15 14.12 С 5 10 км ясно +21.7 +14.8 65 +25 +25 комфорт 1014.9 1015.0
18 14.12 СЗ 2 10 км ясно +19.5 +12.0 62 +22 +22 комфорт 1016.4 1016.0 +22.7
21 14.12 СЗ 2 10 км ясно +18.9 +9.7 55 +20 +20 1016.4 1016.0
00 15.12 С 5 10 км ясно +18.6 +10.4 59 +19 +19 1016.1 1016.0
03 15.12 СЗ 5 10 км ясно +17.9 +10.0 60 +17 +17 1016.5 1017.0
06 15.12 СЗ 5 10 км ясно +19.1 +8.7 51 +20 +20 1018.1 1018.0 +17.4
12 15.12 С 7 10 км ясно +22.3 +12.5 54 +25 +27 комфорт 1017.2 1017.0
15 15.12 С 5 10 км ясно +21.5 +12.1 55 +24 +24 комфорт 1017.7 1018.0
18 15.12 СЗ 2 10 км ясно +19.5 +12.3 63 +21 +21 комфорт 1018.6 1019.0 +22.5
21 15.12 СЗ 1 10 км ясно +18.5 +8.2 51 +20 +20 1019.4 1019.0
00 16.12 СЗ 1 10 км ясно +16.3 +9.0 62 +17 +17 1019.0 1019.0
06 16.12 СЗ 2 10 км ясно +20.1 +13.3 65 +23 +25 комфорт 1020.3 1020.0 +16.1
09 16.12 С 7 10 км ясно +22.7 +16.5 68 +27 +30 душно 1020.0 1020.0
12 16.12 С 5 10 км ясно +23.0 +15.8 64 +27 +31 душно 1018.2 1018.0
15 16.12 штиль 0 10 км ясно +22.0 +12.0 53 +24 +24 комфорт 1018.0 1018.0
18 16.12 штиль 0 10 км ясно +18.4 +11.0 62 +19 +19 1019.8 1020.0 +23.4
21 16.12 штиль 0 10 км ясно +16.8 +11.9 73 +17 +17 1019.5 1020.0
00 17.12 штиль 0 10 км ясно +15.1 +11.7 80 +15 +15 1019.4 1019.0
03 17.12 СЗ 1 10 км ясно +14.6 +11.4 81 +15 +15 1019.3 1019.0
06 17.12 штиль 0 10 км ясно +17.1 +13.0 77 +17 +20 1020.5 1021.0 +14.3
09 17.12 С 2 10 км ясно +22.8 +17.0 70 +28 +37 душно 1019.9 1020.0
12 17.12 С 2 10 км ясно +23.1 +16.9 68 +28 +34 душно 1017.8 1018.0
15 17.12 штиль 0 10 км ясно +22.1 +15.4 66 +26 +26 душно 1017.5 1018.0
18 17.12 штиль 0 10 км ясно +19.4 +14.9 75 +21 +21 комфорт 1018.7 1019.0 +23.4
21 17.12 штиль 0 10 км ясно +17.2 +14.1 82 +17 +17 1019.5 1020.0
00 18.12 СЗ 1 10 км ясно +15.1 +12.4 84 +16 +16 1019.2 1019.0
03 18.12 штиль 0 10 км ясно +14.2 +11.2 82 +14 +14 1018.6 1019.0
06 18.12 СЗ 2 10 км ясно +16.2 +10.9 71 +17 +19 1020.1 1020.0 +14.0
09 18.12 С 2 10 км ясно +29.7 +17.0 46 +33 +43 душно 1020.3 1020.0
12 18.12 С 2 10 км 4/0
[Ci fib]
+23.8 +17.8 69 +28 +34 душно 1018.1 1018.0
15 18.12 штиль 0 10 км 4/0
[Ci fib]
+22.7 +18.0 75 +28 +28 душно 1017.8 1018.0
18 18.12 штиль 0 10 км ясно +20.1 +17.5 85 +23 +23 комфорт 1018.6 1019.0 +24.1

 

Местоположение метеостанции Kosseir (Египет): широта 26.13 долгота 34.15 высота над уровнем моря 11 м.

В архиве по умолчанию представлена погода в Kosseir за последнюю неделю. Архивные данные за месяц целиком и за предыдущие месяцы, начиная с января 2011 года, Вы можете получить, выбрав интересующий диапазон дат из раскрывающегося списка и нажав кнопку "Ввод!".

Внимание! Время в таблицах - всемирное. Для получения местного времени необходимо прибавить поправку, которая в Kosseir равна 2 ч.

Смотрите также архив погоды в соседних городах и на ближайших метеорологических станциях:

Погода в Hurghada (Египет) (121 км)
Погода в South Of Valley University (Египет) (140 км)
Погода в Luxor (Египет) (154 км)
Погода в Al-Wajh (Саудовская Аравия) (233 км)
Погода в El Tor (Египет) (239 км)
Погода в Asswan (Египет) (277 км)
Погода в Abou Redis (Египет) (323 км)
Погода в Asyut (Египет) (328 км)
Погода в Tabuk (Саудовская Аравия) (348 км)
Погода в Shalatin (Египет) (364 км)

Пояснения к столбцам:

Ветер - указаны скорость ветра в м/с - средняя за 10 мин, порывы в срок и между сроками (в фигурных скобках) и направление, откуда дует ветер: С - северный, СВ - северо-восточный, В - восточный, ЮВ - юго-восточный, Ю - южный, ЮЗ - юго-западный, З - западный, СЗ - северо-западный.
Видимость - горизонтальная дальность видимости в метрах или километрах. При видимости от 1 до 10 км при отсутствии осадков обычно наблюдается дымка, при ухудшении видимости до 1 км и менее - туман. В сухую погоду видимость может ухудшаться дымом, пылью или мглою.
Явления - указаны атмосферные явления, наблюдавшиеся в срок или в последний час перед сроком; фигурными скобками обозначены явления, наблюдавшиеся между сроками (за 1-3 часа до срока); квадратными скобками обозначены град или гололедные отложения с указанием их диаметра в мм.
Облачность - указаны через наклонную черту общая и нижняя облачность в баллах и высота нижней границы облаков в метрах; квадратными скобками обозначены формы облаков: Ci - перистые, Cs - перисто-слоистые, Cc - перисто-кучевые, Ac - высококучевые, As - высокослоистые, Sc - слоисто-кучевые, Ns - слоисто-дождевые, Cu - кучевые, Cb - кучево-дождевые. Подробнее классификацию облаков см. в Атласе облаков (PDF).
T - Температура воздуха - температура, измеренная на высоте 2 м над землей.
Td - Температура точки росы - температура, при понижении до которой содержащийся в воздухе водяной пар достигнет насыщения.
f - Относительная влажность воздуха - влажноcть воздуха, измеренная на высоте 2 м над землей.
Te - Эффективная температура - температура, которую ощущает одетый по сезону человек в тени. Характеристика душности погоды. При расчете учитывается влияние влажности воздуха и скорости ветра на теплоощущения человека.
Tes - Эффективная температура на солнце - температура, которую ощущает человек, с поправкой на солнечный нагрев. Характеристика знойности погоды. Зависит от высоты солнца над горизонтом, облачности и скорости ветра. Ночью, в пасмурную погоду, а также при ветре 12 м/с и более поправка равна нулю.
P - Атмосферное давление - приведенное к уровню моря атмосферное давление.
Po - Атмосферное давление - измеренное на уровне метеостанции атмосферное давление.
Tmin - Минимальная температура - минимум температуры воздуха на высоте 2 м над землей.
Tmax - Максимальная температура - максимум температуры воздуха на высоте 2 м над землей.
R - Количество осадков - Количество выпавших осадков за период времени, мм. При наведении курсора мыши на число - период времени, за который выпало указанное количество осадков.
R24 - Количество осадков - Количество выпавших осадков за 24 часа, мм.
S - Снежный покров - Высота снежного покрова, см. При наведении курсора мыши на число - состояние снежного покрова и степень покрытия местности в баллах.